{"data":{"norad_id":52380,"epoch":"2026-05-25T03:52:12.152064Z","epoch_age_seconds":71399,"freshness":"FRESH","line1":"1 52380U 22045BB  26145.16125176  .00001375  00000+0  10448-3 0  9993","line2":"2 52380  53.2123 195.8568 0001152  81.5288 278.5835 15.08836485227602","mean_motion":15.08836485,"eccentricity":0.0001152,"inclination_deg":53.2123,"raan_deg":195.8568,"arg_perigee_deg":81.5288,"mean_anomaly_deg":278.5835,"bstar":0.00010448,"rev_number":22760,"period_min":95.437777010012,"perigee_km":538.95719187525,"apogee_km":540.55107399228,"semimajor_km":6917.8911329338,"source":"CELESTRAK","updated_at":"2026-05-25T13:38:17.122858Z"}}